Regional Weather Roundup
Issued by NWS

Home | Current Version | Previous Version | Text Only | Print | Product List | Glossary On
Versions: 1 2 3 4 5 6 7 8 9 10 11 12 13 14 15 16 17 18 19 20 21 22 23 24 25 26 27 28 29 30 31 32 33 34 35 36 37 38 39 40 41 42 43 44 45 46 47 48 49 50
000
ASUS44 KLUB 260510
RWRTX
WEST TEXAS WEATHER ROUNDUP
NATIONAL WEATHER SERVICE LUBBOCK TX
1200 AM CDT THU MAY 26 2016

NOTE: "FAIR" INDICATES FEW OR NO CLOUDS BELOW 12,000 FEET WITH NO
SIGNIFICANT WEATHER AND/OR OBSTRUCTIONS TO VISIBILITY.

TXZ004-006>008-010-012-014-016-OKZ002-260600-
TEXAS PANHANDLE/OKLAHOMA PANHANDLE

CITY           SKY/WX    TMP DP  RH WIND       PRES   REMARKS
AMARILLO       CLEAR     65  31  28 SW13      29.92S
BORGER         CLEAR     79  26  14 S9        29.87S
CANADIAN       CLEAR     67  54  61 SW5       29.84S
DALHART        CLEAR     58  39  49 S5        29.92S
DUMAS          CLEAR     61  34  36 SW10      29.91R
GUYMON         CLEAR     62  44  51 S5        29.85S
HEREFORD       CLEAR     62  31  31 NW8G18    29.94F
PAMPA          CLEAR     61  50  66 S10       29.90F
PERRYTON       CLEAR     62  53  73 S8        29.85F
$$

TXZ026-029-035-045-048-260600-
SOUTHERN PANHANDLE/SOUTH PLAINS/ROLLING PLAINS

CITY           SKY/WX    TMP DP  RH WIND       PRES   REMARKS
CHILDRESS      CLEAR     78  68  71 S15       29.84S
SEMINOLE       MOCLDY    77  60  55 S12G18    29.98R
LUBBOCK        CLEAR     78  51  38 S13G22    29.94R
PLAINVIEW      CLEAR     66  36  33 S12       29.93R
SNYDER           N/A     76  70  82 S13       29.95R
$$

TXZ052-054-060>062-072-078-127-140-154-169-260600-
PERMIAN BASIN/CONCHO VALLEY/BIG COUNTRY/EDWARDS PLATEAU

CITY           SKY/WX    TMP DP  RH WIND       PRES   REMARKS
ABILENE        PTCLDY    76  73  91 S15       29.95R FOG
BIG SPRING     PTCLDY    75  68  79 S21       29.97R
BROWNWOOD      CLOUDY    77  75  94 SE10      29.95F FOG
JUNCTION       CLOUDY    79  74  84 S8        29.97F
MIDLAND        PTCLDY    78  68  71 S18       29.94R
ODESSA         PTCLDY    77  67  71 S14G25    29.95R
SAN ANGELO     CLOUDY    80  73  79 S14G23    29.93S HAZE
SONORA         CLOUDY    81  73  78 S13       30.04R
SWEETWATER     CLEAR     77  71  82 S16       29.97R
WINK           PTCLDY    77  67  71 MISG      29.90R
$$

TXZ055-058-074-075-080-082-260600-
FAR WEST/SOUTHWEST MOUNTAINS/TRANS PECOS

CITY           SKY/WX    TMP DP  RH WIND       PRES   REMARKS
ALPINE         CLOUDY    73  48  41 S7        30.11S
DRYDEN           N/A     80  73  79 SE14G23   29.95S
EL PASO        CLEAR     81  10   7 W21G32    29.97R
FORT STOCKTON  PTCLDY    77  67  71 SE12G25   29.94S
MARFA          PTCLDY    74  40  29 S9        30.09S
PECOS          CLOUDY    85  45  24 S10       29.87R
PRESIDIO       FAIR      85  46  25 S17G23    29.97R
$$

TXZ014-016-019-021>030-083-260600
TEXAS TECH WEST TEXAS MESONET/TEXAS PANHANDLE/NORTHERN SOUTH PLAINS

CITY           SKY/WX    TMP DP  RH WIND       PRES   REMARKS
ABERNATHY 5ENE   N/A     71  49  45 S12       29.97S
AMARILLO 9NNE    N/A     59  35  41 S7        29.92R
AMARILLO 7SSE    N/A     58  33  38 W9        29.94S
AMHERST 1NE      N/A     65  31  28 SW7       29.95S
BOOTLEG 11WNW    N/A     53  27  36 SW10      30.00S
CANADIAN 6E      N/A     71  53  52 SE12      29.84S
CAPROCK CYN SP   N/A     76  39  26 SW12      29.91R
CHILDRESS 2NNE   N/A     77  67  70 S14       29.86S
CLARENDON 2WSW   N/A     65  49  56 S9        29.90S
CLAUDE 12SW      N/A     72  29  20 SE6       29.93S
DIMMITT 2NE      N/A     65  31  27 SW9       29.95F
FLOYDADA 2NNE    N/A     68  45  42 SW8       29.95R
FRIONA 2NE       N/A     57  32  38 W9        29.97F
GOODLETT 3W      N/A     80  69  70 S14       29.84S
HART 3N          N/A     60  35  39 W3        29.95S
HEREFORD 2NW     N/A     61  26  26 W9        29.96F
MCLEAN 1E        N/A     69  47  44 S7        29.89S
MEMPHIS 1NE      N/A     73  54  50 S5        29.87S
MULESHOE 2SSW    N/A     61  31  31 SW10      29.96F
OLTON 6S         N/A     65  34  31 S20       29.95S
PALO DURO SP     N/A     70  29  22 SW8       29.94S
PAMPA 2E         N/A     59  49  69 S10       29.91F
PLAINVIEW 1S     N/A     72  37  28 S15       29.95R
SILVERTON 7ESE   N/A     58  45  63 SW10      29.92S
TULIA 2ENE       N/A     64  35  34 S9        29.95R
TURKEY 2WSW      N/A     69  51  52 S7        29.89R
UMBARGER 3NNE    N/A     58  29  33 W8        29.94F
$$

TXZ033>036-039>041-045>048-260600
TEXAS TECH WEST TEXAS MESONET/SOUTH PLAINS

CITY           SKY/WX    TMP DP  RH WIND       PRES   REMARKS
AIKEN 3WSW       N/A     69  41  35 S13       29.96R
ANDREWS 2NE    LGT RAIN  75  65  72 S20G25    29.99R
ANTON 6SSW       N/A     70  41  34 S9        29.95F
BROWNFIELD 2S    N/A     72  52  48 S9        29.97S
DENVR CTY 7WNW   N/A     67  46  46 SE9       29.98R
GAIL 2ESE        N/A     75  68  78 S10       29.95R
LAMESA 2SE       N/A     76  65  67 S16       29.98R
LEVELLAND 4S     N/A     71  37  29 S10       29.97F
LUBBOCK 3WNW     N/A     74  48  39 S7        29.96F
MORTON 1ENE      N/A     72  28  19 S10G16    29.96S
ODONNELL 1N      N/A     75  62  62 S15G21    29.97R
PLAINS 3N        N/A     70  43  37 SE12      29.98F
RALLS 1SE        N/A     71  56  59 S12       29.96R
REESE CENTER     N/A     76  49  38 S16       29.96F
SEAGRAVES 1SW    N/A     75  55  50 S9        29.98R
SEMINOLE 2NNE    N/A     77  59  53 S16G23    29.98R
SLATON 2NE       N/A     73  60  63 S12       29.94F
SNYDER 3E        N/A     76  70  81 S18       29.94S
SUNDOWN 8SW      N/A     70  39  33 S9        29.97F
TAHOKA 3NNE      N/A     74  63  67 S12       29.95S
WOLFFORTH 6SSW   N/A     73  50  44 S7        29.96F
$$

TXZ031-032-036>038-042>044-260600-
TEXAS TECH WEST TEXAS MESONET/ROLLING PLAINS

CITY           SKY/WX    TMP DP  RH WIND       PRES   REMARKS
ASPERMONT 3NE    N/A     78  71  78 S13G18    29.91R
FLUVANNA 3WNW    N/A     75  65  70 S16       29.96R
GUTHRIE 10WSW    N/A     78  69  73 S17       29.88S
HASKELL 1NW      N/A     78  69  74 S14G20    29.91S
JAYTON 1SSE      N/A     78  69  73 S10       29.91R
KNOX CITY 3NW    N/A     80  69  69 S12       29.90R
LK A HENRY 1NW   N/A     76  66  71 S8        29.92S
NORTHFIELD 1S    N/A     74  60  59 S17       29.87R
ODELL 4ENE       N/A     79  74  84 SE15      29.86F
PADUCAH 10SW     N/A     77  70  78 S15       29.89R
POST 1NE         N/A     75  62  63 S9        29.93S
RRING SPRGS 3N   N/A     70  59  69 S9        29.92S
SEYMOUR 3NW      N/A     78  71  78 SE14      29.89S
SPUR 1W          N/A     76  65  67 S12       29.91R
WEINERT 2NNE     N/A     79  72  79 S17       29.90S
WHITE RVR 6NE    N/A     71  56  59 S10       29.93R
$$

TXZ052-054-060>062-072-078-127-140-154-169-260600-
TEXAS TECH WEST TEXAS MESONET/PERMIAN BASIN/
CONCHO VALLEY/BIG COUNTRY/EDWARDS PLATEAU

CITY           SKY/WX    TMP DP  RH WIND       PRES   REMARKS
COYANOSA 2N      N/A     80  66  63 SE20      29.89F
JUNCTION 1SSW    N/A     79  75  89 S6        29.99F
MERTZON 3NNE     N/A     79  72  81 S15G22    29.97S
SAN ANGELO 7NW   N/A     79  70  75 SE6       29.95F
STRLNG CT 4WSW   N/A     77  71  83 S17       29.96F
ST LAWRNCE 5SW   N/A     77  69  75 S20G25    29.96F
SWEETWATR 11SW   N/A     76  71  83 S16       29.97F
WALL 1E          N/A     80  71  74 S17G26    29.94F
$$

TXZ055-058-074-075-080-082-260600-
TEXAS TECH WEST TEXAS MESONET/FAR WEST/SOUTHWEST MOUNTAINS/TRANS PECOS

CITY           SKY/WX    TMP DP  RH WIND       PRES   REMARKS
PRSMN GAP BBNP   N/A     82  59  45 NE8       29.98S
GUADLPE MTN NP   N/A     75  13   9 W15       30.10S
$$



USA.gov is the U.S. government's official web portal to all federal, state and local government web resources and services.